Weather History for K2I0 - January, 2014

Change the Weather History Date:

Sunday, January 5, 2014

  Actual Average (KOWB) Record (KOWB)
Temperature  
Mean Temperature 32 °F -  
Max Temperature 50 °F 40 °F 66 °F (1955)
Min Temperature 13 °F 24 °F -9 °F (1940)
Degree Days  
Heating Degree Days 33    
Moisture  
Dew Point 31 °F    
Average Humidity 83    
Maximum Humidity 100    
Minimum Humidity 60    
Precipitation  
Precipitation 0.48 in - - ()
Sea Level Pressure  
Sea Level Pressure 29.85 in    
Wind  
Wind Speed 12 mph (SW)    
Max Wind Speed 24 mph    
Max Gust Speed 41 mph    
Visibility 7 miles    
Events Rain , Snow    
Averages and records for this station are not official NWS values.
T = Trace of Precipitation, MM = Missing Value Source: NWS Daily Summary

Daily Weather History Graph

Daily Weather History Graph

Search for Another Location

Airport or City:

Trip Planner

Search our weather history database for the weather conditions in past years. The results will help you decide how hot, cold, wet, or windy it might be!

Date:

Astronomy

Jan. 05, 2014 Rise Set
Actual Time 7:04 AM CST 4:46 PM CST
Civil Twilight 6:35 AM CST 5:15 PM CST
Nautical Twilight 6:02 AM CST 5:47 PM CST
Astronomical Twilight 5:31 AM CST 6:19 PM CST
Moon 9:52 AM CST (1/5) 10:06 PM CST (1/5)
Length of Visible Light 10h 39m
Length of Day
9h 41m
Waxing Crescent, 25% of the Moon is Illuminated
Jan 5
Waxing Crescent
Jan 7
First Quarter
Jan 15
Full
Jan 23
Last Quarter
Jan 30
New

Hourly Weather History & Observations

Time (CST) Temp. Windchill Dew Point Humidity Pressure Visibility Wind Dir Wind Speed Gust Speed Precip Events Conditions
12:15 AM 42.1 °F 37.1 °F 28.9 °F 60% 30.01 in 10.0 mi South 8.1 mph - N/A   Overcast
12:35 AM 41.9 °F 36.9 °F 29.3 °F 61% 30.01 in 10.0 mi South 8.1 mph - N/A   Overcast
12:55 AM 41.7 °F 36.1 °F 30.9 °F 66% 30.01 in 10.0 mi South 9.2 mph - N/A Rain Light Rain
1:15 AM 41.0 °F 34.3 °F 32.0 °F 70% 29.99 in 10.0 mi South 11.5 mph - N/A Rain Light Rain
1:35 AM 40.8 °F 32.9 °F 31.8 °F 70% 29.98 in 10.0 mi South 15.0 mph 20.7 mph N/A   Overcast
1:55 AM 41.0 °F 32.8 °F 32.0 °F 70% 29.95 in 10.0 mi South 16.1 mph 23.0 mph N/A   Overcast
2:15 AM 41.0 °F 35.8 °F 31.6 °F 69% 29.97 in 10.0 mi SSW 8.1 mph - N/A   Scattered Clouds
2:35 AM 40.6 °F 36.0 °F 31.3 °F 69% 29.96 in 10.0 mi SSW 6.9 mph - N/A   Clear
2:55 AM 40.5 °F 35.8 °F 31.1 °F 69% 29.95 in 10.0 mi South 6.9 mph - N/A   Scattered Clouds
3:15 AM 40.6 °F 35.4 °F 31.6 °F 70% 29.95 in 10.0 mi South 8.1 mph - N/A   Mostly Cloudy
3:35 AM 40.3 °F 37.1 °F 31.8 °F 72% 29.94 in 10.0 mi South 4.6 mph - N/A   Mostly Cloudy
3:55 AM 40.3 °F 35.5 °F 32.0 °F 72% 29.93 in 10.0 mi South 6.9 mph - N/A   Mostly Cloudy
4:15 AM 40.3 °F 35.5 °F 32.0 °F 72% 29.92 in 10.0 mi South 6.9 mph - N/A   Scattered Clouds
4:35 AM 41.2 °F 35.0 °F 32.4 °F 71% 29.91 in 10.0 mi South 10.4 mph - N/A   Scattered Clouds
4:55 AM 41.0 °F 34.7 °F 32.7 °F 72% 29.90 in 10.0 mi South 10.4 mph - N/A   Mostly Cloudy
5:15 AM 41.4 °F 34.3 °F 33.1 °F 72% 29.89 in 10.0 mi South 12.7 mph - N/A   Overcast
5:35 AM 41.4 °F 34.7 °F 33.8 °F 74% 29.88 in 10.0 mi South 11.5 mph - N/A   Overcast
5:55 AM 41.9 °F 35.0 °F 34.2 °F 74% 29.88 in 10.0 mi South 12.7 mph 18.4 mph N/A   Overcast
6:15 AM 41.9 °F 35.4 °F 34.7 °F 76% 29.88 in 10.0 mi South 11.5 mph - N/A   Overcast
6:35 AM 41.9 °F 35.4 °F 35.1 °F 77% 29.88 in 10.0 mi South 11.5 mph 19.6 mph N/A   Overcast
6:55 AM 42.1 °F 35.7 °F 35.6 °F 78% 29.87 in 10.0 mi South 11.5 mph 17.3 mph N/A   Overcast
7:15 AM 42.3 °F 35.9 °F 36.3 °F 79% 29.86 in 10.0 mi South 11.5 mph 17.3 mph N/A   Overcast
7:35 AM 42.8 °F 36.6 °F 36.7 °F 79% 29.85 in 10.0 mi South 11.5 mph - N/A   Overcast
7:55 AM 42.8 °F 37.5 °F 36.9 °F 80% 29.83 in 10.0 mi South 9.2 mph - N/A   Overcast
8:15 AM 43.3 °F 37.7 °F 37.4 °F 80% 29.83 in 10.0 mi South 10.4 mph 17.3 mph N/A   Overcast
8:35 AM 43.7 °F 37.3 °F 37.8 °F 80% 29.81 in 10.0 mi South 12.7 mph 19.6 mph N/A   Overcast
8:55 AM 44.1 °F 37.1 °F 38.3 °F 80% 29.80 in 10.0 mi South 15.0 mph 20.7 mph N/A   Overcast
9:15 AM 44.6 °F 37.2 °F 38.8 °F 80% 29.79 in 10.0 mi South 17.3 mph 24.2 mph N/A   Overcast
9:35 AM 44.8 °F 38.0 °F 39.2 °F 81% 29.78 in 10.0 mi South 15.0 mph 20.7 mph N/A   Light Drizzle
9:55 AM 44.1 °F 37.7 °F 40.1 °F 86% 29.75 in 7.0 mi South 12.7 mph 17.3 mph N/A Rain Light Rain
10:15 AM 45.0 °F 38.5 °F 41.0 °F 86% 29.73 in 10.0 mi South 13.8 mph 19.6 mph N/A Rain Light Rain
10:35 AM 46.8 °F - 42.1 °F 84% 29.70 in 10.0 mi South 16.1 mph 24.2 mph N/A   Overcast
10:55 AM 48.2 °F - 42.4 °F 80% 29.68 in 10.0 mi South 16.1 mph 24.2 mph N/A   Overcast
11:15 AM 49.1 °F - 43.0 °F 79% 29.67 in 10.0 mi SSW 12.7 mph 24.2 mph N/A   Overcast
11:35 AM 50.0 °F - 43.7 °F 79% 29.65 in 10.0 mi SSW 16.1 mph 26.5 mph N/A   Overcast
11:55 AM 50.9 °F - 43.7 °F 76% 29.68 in 10.0 mi West 18.4 mph 24.2 mph N/A   Overcast
12:15 PM 46.2 °F - 44.4 °F 93% 29.66 in 2.5 mi Calm Calm - 0.11 in Rain Heavy Rain
12:35 PM 45.0 °F - 44.8 °F 99% 29.66 in 1.5 mi Calm Calm - 0.20 in   Overcast
12:55 PM 45.0 °F 43.5 °F 45.0 °F 100% 29.63 in 1.0 mi SSE 3.5 mph - 0.29 in   Overcast
1:15 PM 45.0 °F - 45.0 °F 100% 29.62 in 2.5 mi Calm Calm - 0.04 in Rain Rain
1:35 PM 45.5 °F - 45.5 °F 100% 29.60 in 2.0 mi Calm Calm - 0.06 in Rain Light Rain
1:55 PM 45.5 °F - 45.5 °F 100% 29.60 in 1.8 mi Calm Calm - 0.09 in Rain Rain
2:15 PM 45.5 °F - 45.5 °F 100% 29.60 in 0.5 mi Calm Calm - 0.03 in Rain Rain
2:35 PM 46.0 °F 44.8 °F 46.0 °F 100% 29.59 in 1.2 mi SSW 3.5 mph - 0.05 in Rain Rain
2:55 PM 45.9 °F 44.6 °F 45.9 °F 100% 29.59 in 1.8 mi WSW 3.5 mph - 0.06 in Rain Light Rain
3:15 PM 45.3 °F 41.1 °F 45.3 °F 100% 29.60 in 0.5 mi WNW 8.1 mph - 0.01 in Rain Rain
3:35 PM 38.5 °F 27.8 °F 38.5 °F 100% 29.63 in 1.8 mi WNW 23.0 mph 33.4 mph 0.03 in   Heavy Drizzle
3:55 PM 35.8 °F 25.1 °F 35.8 °F 100% 29.66 in 1.8 mi NW 19.6 mph 36.8 mph 0.03 in   Heavy Drizzle
4:15 PM 34.7 °F 23.7 °F 34.7 °F 100% 29.68 in 1.5 mi WNW 19.6 mph 28.8 mph N/A Rain Heavy Rain
4:35 PM 32.4 °F 20.3 °F 32.4 °F 100% 29.71 in 3.0 mi NW 20.7 mph 33.4 mph 0.01 in   Overcast
4:55 PM 30.4 °F 19.1 °F 29.3 °F 96% 29.74 in 2.5 mi NW 16.1 mph 32.2 mph 0.01 in Snow Light Snow
5:15 PM 28.6 °F 16.0 °F 27.5 °F 96% 29.75 in 1.8 mi NW 18.4 mph 28.8 mph N/A Snow Light Snow
5:35 PM 27.7 °F 13.8 °F 26.8 °F 96% 29.79 in 1.8 mi WNW 21.9 mph 27.6 mph N/A Snow Light Snow
5:55 PM 27.0 °F 13.2 °F 25.5 °F 94% 29.81 in 10.0 mi NW 20.7 mph 31.1 mph N/A   Overcast
6:15 PM 26.4 °F 12.8 °F 24.6 °F 93% 29.83 in 10.0 mi NW 19.6 mph 32.2 mph N/A   Overcast
6:35 PM 25.5 °F 10.9 °F 23.0 °F 90% 29.85 in 10.0 mi NW 21.9 mph 35.7 mph N/A   Overcast
6:55 PM 24.4 °F 9.9 °F 21.9 °F 90% 29.88 in 10.0 mi NW 20.7 mph 34.5 mph N/A   Overcast
7:15 PM 23.0 °F 7.6 °F 20.1 °F 89% 29.91 in 10.0 mi NW 21.9 mph 41.4 mph N/A   Overcast
7:35 PM 22.3 °F 7.4 °F 19.2 °F 88% 29.94 in 10.0 mi NW 19.6 mph 34.5 mph N/A   Overcast
7:55 PM 21.7 °F 6.3 °F 18.9 °F 89% 29.96 in 5.0 mi NW 20.7 mph 31.1 mph N/A Snow Light Snow
8:15 PM 20.8 °F 5.9 °F 17.2 °F 86% 29.99 in 5.0 mi NNW 18.4 mph 27.6 mph N/A Snow Light Snow
8:35 PM 20.3 °F 4.0 °F 17.4 °F 89% 30.01 in 2.5 mi NW 21.9 mph 34.5 mph N/A Snow Light Snow
8:55 PM 19.8 °F 5.0 °F 16.5 °F 87% 30.03 in 5.0 mi NNW 17.3 mph 27.6 mph N/A Snow Light Snow
9:15 PM 19.4 °F 6.6 °F 16.9 °F 90% 30.04 in 3.0 mi NW 12.7 mph 24.2 mph N/A Snow Light Snow
9:35 PM 18.5 °F 2.4 °F 15.4 °F 88% 30.06 in 4.0 mi NW 19.6 mph 29.9 mph N/A Snow Light Snow
9:55 PM 17.4 °F -0.2 °F 12.9 °F 83% 30.08 in 7.0 mi NW 23.0 mph 40.3 mph N/A Snow Light Snow
10:15 PM 16.3 °F -0.4 °F 11.5 °F 81% 30.09 in 7.0 mi NNW 19.6 mph 28.8 mph N/A   Overcast
10:35 PM 15.8 °F -1.5 °F 10.9 °F 81% 30.11 in 10.0 mi NNW 20.7 mph 29.9 mph N/A   Overcast
10:55 PM 15.8 °F -2.7 °F 11.8 °F 84% 30.12 in 4.0 mi WNW 24.2 mph 31.1 mph N/A Snow Light Snow
11:15 PM 14.9 °F -1.8 °F 9.9 °F 80% 30.14 in 10.0 mi NNW 18.4 mph 28.8 mph N/A   Overcast
11:35 PM 14.5 °F -2.7 °F 9.1 °F 79% 30.15 in 10.0 mi NW 19.6 mph 26.5 mph N/A   Overcast
11:55 PM 13.8 °F -4.9 °F 8.2 °F 78% 30.16 in 10.0 mi NW 23.0 mph 35.7 mph N/A   Overcast